Location: ???? ??
(36.0534°N, 43.5630°E)
Time: 09:35:51
(UTC+00:00)

Cosmos 2227 Rocket - Pass Details

Date: 18 September 2019
Orbit: 837 x 847 km, 71.0° (Epoch: 17 October)

Event Time Altitude Azimuth Distance (km) Brightness Sun altitude
Rises 17:17:03 0° 206° (SSW) 3,376 5.4 -25.9°
Reaches altitude 10° 17:19:30 10° 208° (SSW) 2,447 4.6 -26.4°
Maximum altitude 17:25:06 71° 293° (WNW) 889 2.3 -27.4°
Drops below altitude 10° 17:30:45 10° 17° (NNE) 2,468 4.7 -28.4°
Sets 17:33:13 0° 20° (NNE) 3,408 5.4 -28.9°
